VLG452 LEPA-LEBL

Flight info

Callsign VLG452
Flight time 0h 32m
Altitude 18000
Route ESPOR L2 NEPAL
Aircraft A320/M-SDE3FGHIRWY/LB1

Departure

Time 2026-05-01 13:15
Airport Palma de Mallorca Airport (LEPA)

Arrival

Time 2026-05-01 13:48
Airport Josep Tarradellas Barcelona-El Prat Airport (LEBL)
Time Latitude Longitude Altitude Speed Heading
2026-05-01 12:52 39.54515 2.73228 38 ft 0 kts 346°
2026-05-01 13:09 39.54503 2.73232 38 ft 4 kts 346°
2026-05-01 13:09 39.54479 2.73244 37 ft 4 kts 307°
2026-05-01 13:09 39.54474 2.73273 38 ft 4 kts 251°
2026-05-01 13:09 39.54486 2.73304 37 ft 4 kts 238°
2026-05-01 13:10 39.54489 2.73311 38 ft 0 kts 238°
2026-05-01 13:12 39.54486 2.73306 37 ft 2 kts 238°
2026-05-01 13:12 39.54475 2.73282 37 ft 4 kts 238°
2026-05-01 13:12 39.54456 2.73242 38 ft 6 kts 238°
2026-05-01 13:13 39.54418 2.73210 38 ft 8 kts 177°
2026-05-01 13:13 39.54361 2.73213 36 ft 9 kts 210°
2026-05-01 13:13 39.54308 2.73162 38 ft 11 kts 181°
2026-05-01 13:13 39.54268 2.73237 38 ft 12 kts 92°
2026-05-01 13:14 39.54269 2.73358 38 ft 15 kts 92°
2026-05-01 13:14 39.54277 2.73487 37 ft 15 kts 65°
2026-05-01 13:14 39.54357 2.73664 38 ft 47 kts 59°
2026-05-01 13:14 39.54646 2.74272 38 ft 108 kts 58°
2026-05-01 13:15 39.55126 2.75285 42 ft 154 kts 58°
2026-05-01 13:15 39.55716 2.76514 517 ft 162 kts 60°
2026-05-01 13:15 39.56299 2.77758 1229 ft 162 kts 60°
2026-05-01 13:15 39.56864 2.79021 1934 ft 163 kts 62°
2026-05-01 13:16 39.57454 2.80350 2436 ft 177 kts 62°
2026-05-01 13:16 39.58110 2.81808 2802 ft 197 kts 61°
2026-05-01 13:16 39.58836 2.83384 3346 ft 209 kts 60°
2026-05-01 13:17 39.61123 2.88411 5676 ft 223 kts 61°
2026-05-01 13:17 39.62059 2.90033 6411 ft 230 kts 40°
2026-05-01 13:18 39.65176 2.90484 7785 ft 244 kts 330°
2026-05-01 13:18 39.66386 2.88992 8537 ft 243 kts 296°
2026-05-01 13:18 39.67032 2.86974 9374 ft 241 kts 288°
2026-05-01 13:18 39.67544 2.84908 10211 ft 240 kts 284°
2026-05-01 13:19 39.67958 2.82795 10917 ft 243 kts 281°
2026-05-01 13:19 39.68275 2.80633 11596 ft 246 kts 277°
2026-05-01 13:19 39.68606 2.76149 12960 ft 254 kts 276°
2026-05-01 13:20 39.68951 2.73864 13525 ft 268 kts 284°
2026-05-01 13:20 39.69614 2.71488 13765 ft 292 kts 292°
2026-05-01 13:20 39.70466 2.68987 13941 ft 315 kts 292°
2026-05-01 13:21 39.72368 2.63419 14246 ft 357 kts 292°
2026-05-01 13:21 39.73387 2.60435 14706 ft 364 kts 293°
2026-05-01 13:21 39.74415 2.57416 15299 ft 367 kts 292°
2026-05-01 13:21 39.75446 2.54367 15904 ft 369 kts 292°
2026-05-01 13:22 39.76481 2.51299 16506 ft 372 kts 292°
2026-05-01 13:22 39.77517 2.48218 17113 ft 374 kts 292°
2026-05-01 13:22 39.78563 2.45107 17715 ft 376 kts 293°
2026-05-01 13:22 39.79619 2.41979 18101 ft 379 kts 292°
2026-05-01 13:23 39.80689 2.38824 18182 ft 387 kts 294°
2026-05-01 13:23 39.82058 2.35780 18188 ft 393 kts 305°
2026-05-01 13:23 39.83897 2.33137 18187 ft 396 kts 317°
2026-05-01 13:23 39.86127 2.31024 18193 ft 398 kts 329°
2026-05-01 13:24 39.88648 2.29520 18193 ft 399 kts 338°
2026-05-01 13:24 39.91229 2.28235 18194 ft 399 kts 338°
2026-05-01 13:24 39.93841 2.26929 18193 ft 399 kts 338°
2026-05-01 13:25 39.99022 2.24333 18194 ft 399 kts 338°
2026-05-01 13:25 40.01612 2.23034 18196 ft 399 kts 338°
2026-05-01 13:25 40.04204 2.21731 18199 ft 399 kts 338°
2026-05-01 13:25 40.06795 2.20426 18199 ft 399 kts 338°
2026-05-01 13:26 40.09389 2.19119 18201 ft 399 kts 338°
2026-05-01 13:26 40.11983 2.17813 18202 ft 400 kts 338°
2026-05-01 13:26 40.14579 2.16505 18204 ft 400 kts 338°
2026-05-01 13:26 40.17173 2.15197 18208 ft 400 kts 338°
2026-05-01 13:27 40.19769 2.13886 18215 ft 400 kts 338°
2026-05-01 13:27 40.22367 2.12574 18213 ft 400 kts 338°
2026-05-01 13:27 40.27552 2.09942 18216 ft 399 kts 337°
2026-05-01 13:28 40.32798 2.07525 18216 ft 399 kts 341°
2026-05-01 13:28 40.35453 2.06447 18214 ft 399 kts 342°
2026-05-01 13:29 40.40777 2.04345 18216 ft 399 kts 341°
2026-05-01 13:29 40.46081 2.02197 18213 ft 399 kts 341°
2026-05-01 13:30 40.56350 1.97900 17353 ft 370 kts 341°
2026-05-01 13:31 40.61215 1.95863 16370 ft 365 kts 341°
2026-05-01 13:31 40.68300 1.92519 14926 ft 357 kts 329°
2026-05-01 13:32 40.71929 1.88188 13971 ft 352 kts 307°
2026-05-01 13:33 40.76491 1.80704 12533 ft 346 kts 308°
2026-05-01 13:33 40.79454 1.75865 11619 ft 342 kts 309°
2026-05-01 13:34 40.82424 1.70986 10727 ft 340 kts 309°
2026-05-01 13:34 40.85304 1.66255 10424 ft 318 kts 309°
2026-05-01 13:35 40.87996 1.61871 9957 ft 300 kts 313°
2026-05-01 13:35 40.89640 1.60237 9708 ft 296 kts 335°
2026-05-01 13:35 40.93342 1.57908 9115 ft 293 kts 336°
2026-05-01 13:36 40.95179 1.56757 8806 ft 291 kts 336°
2026-05-01 13:36 40.97004 1.55609 8515 ft 290 kts 336°
2026-05-01 13:36 41.00624 1.53328 7935 ft 286 kts 336°
2026-05-01 13:37 41.02418 1.52195 7645 ft 285 kts 336°
2026-05-01 13:37 41.04178 1.51080 7410 ft 281 kts 336°
2026-05-01 13:37 41.05905 1.49985 7339 ft 270 kts 336°
2026-05-01 13:37 41.07640 1.49243 7249 ft 256 kts
2026-05-01 13:38 41.10242 1.51378 7082 ft 224 kts 69°
2026-05-01 13:38 41.10786 1.53307 6997 ft 224 kts 69°
2026-05-01 13:38 41.11403 1.55183 6920 ft 218 kts 67°
2026-05-01 13:39 41.12033 1.56988 6805 ft 215 kts 66°
2026-05-01 13:39 41.12676 1.58778 6587 ft 214 kts 65°
2026-05-01 13:39 41.13322 1.60572 6216 ft 217 kts 66°
2026-05-01 13:39 41.13972 1.62371 5957 ft 215 kts 66°
2026-05-01 13:40 41.14606 1.64153 5738 ft 211 kts 67°
2026-05-01 13:40 41.15218 1.65902 5553 ft 208 kts 67°
2026-05-01 13:40 41.15823 1.67640 5363 ft 207 kts 68°
2026-05-01 13:40 41.16422 1.69363 5168 ft 205 kts 68°
2026-05-01 13:41 41.17019 1.71083 4984 ft 205 kts 68°
2026-05-01 13:41 41.17613 1.72794 4789 ft 203 kts 67°
2026-05-01 13:41 41.18202 1.74490 4605 ft 201 kts 68°
2026-05-01 13:41 41.18787 1.76175 4421 ft 199 kts 68°
2026-05-01 13:42 41.19362 1.77834 4241 ft 196 kts 68°
2026-05-01 13:42 41.19929 1.79471 4057 ft 195 kts 67°
2026-05-01 13:42 41.20497 1.81110 3880 ft 194 kts 67°
2026-05-01 13:42 41.21059 1.82734 3701 ft 193 kts 67°
2026-05-01 13:43 41.21619 1.84356 3591 ft 193 kts 67°
2026-05-01 13:43 41.22179 1.85976 3423 ft 192 kts 67°
2026-05-01 13:43 41.22735 1.87584 3192 ft 191 kts 66°
2026-05-01 13:43 41.23285 1.89177 2949 ft 190 kts 67°
2026-05-01 13:44 41.23832 1.90761 2723 ft 186 kts 67°
2026-05-01 13:44 41.24358 1.92286 2464 ft 177 kts 66°
2026-05-01 13:44 41.24858 1.93736 2231 ft 169 kts 66°
2026-05-01 13:44 41.25324 1.95087 2013 ft 152 kts 68°
2026-05-01 13:45 41.25740 1.96295 1832 ft 137 kts 68°
2026-05-01 13:45 41.26131 1.97431 1653 ft 133 kts 68°
2026-05-01 13:45 41.26512 1.98539 1469 ft 132 kts 66°
2026-05-01 13:45 41.26888 1.99635 1301 ft 130 kts 68°
2026-05-01 13:46 41.27254 2.00693 1102 ft 133 kts 67°
2026-05-01 13:46 41.27658 2.01786 1020 ft 131 kts 66°
2026-05-01 13:46 41.28051 2.02885 795 ft 134 kts 69°
2026-05-01 13:46 41.28431 2.03981 562 ft 131 kts 72°
2026-05-01 13:47 41.28697 2.04722 409 ft 131 kts 77°
2026-05-01 13:47 41.29069 2.05819 250 ft 133 kts 85°
2026-05-01 13:47 41.29413 2.06965 96 ft 133 kts 78°
2026-05-01 13:47 41.29789 2.08052 27 ft 119 kts 74°
2026-05-01 13:48 41.30104 2.09026 18 ft 53 kts 67°
2026-05-01 13:48 41.30137 2.09264 15 ft 27 kts 93°
2026-05-01 13:48 41.30100 2.09421 16 ft 14 kts 147°
2026-05-01 13:48 41.30031 2.09359 16 ft 14 kts 246°
2026-05-01 13:49 41.29992 2.09234 17 ft 15 kts 246°
2026-05-01 13:49 41.29947 2.09097 19 ft 17 kts 246°
2026-05-01 13:49 41.29896 2.08950 19 ft 17 kts 248°
2026-05-01 13:49 41.29845 2.08794 20 ft 20 kts 245°
2026-05-01 13:50 41.29784 2.08616 18 ft 22 kts 245°
2026-05-01 13:50 41.29716 2.08419 18 ft 24 kts 245°
2026-05-01 13:50 41.29660 2.08264 17 ft 16 kts 239°
2026-05-01 13:50 41.29559 2.08260 16 ft 16 kts 155°
2026-05-01 13:51 41.29474 2.08313 17 ft 8 kts 155°
2026-05-01 13:51 41.29463 2.08320 17 ft 0 kts 155°
2026-05-01 13:51 41.29462 2.08321 17 ft 1 kts 155°
2026-05-01 13:52 41.29444 2.08331 18 ft 6 kts 155°
2026-05-01 13:52 41.29384 2.08339 19 ft 11 kts 210°
2026-05-01 13:52 41.29342 2.08247 19 ft 10 kts 246°
2026-05-01 13:52 41.29324 2.08189 19 ft 5 kts 246°
2026-05-01 13:53 41.29288 2.08162 19 ft 7 kts 187°
2026-05-01 13:53 41.29238 2.08158 19 ft 1 kts 183°
2026-05-01 13:53 41.29228 2.08157 19 ft 1 kts 183°
2026-05-01 13:54 41.29227 2.08157 19 ft 0 kts 183°